Regional Weather Roundup
Issued by NWS

Home | Current Version | Previous Version | Graphics & Text | Print | Product List | Glossary On
Versions: 1 2 3 4 5 6 7 8 9 10 11 12 13 14 15 16 17 18 19 20 21 22 23 24 25 26 27 28 29 30 31 32 33 34 35 36 37 38 39 40 41 42 43 44 45 46 47 48 49 50
587
ASUS43 KDMX 021506
RWRIA

WEATHER ROUNDUP FOR IOWA
NATIONAL WEATHER SERVICE DES MOINES IA
900 AM CST FRI DEC 02 2016

NOTE: "FAIR" INDICATES FEW OR NO CLOUDS BELOW 12,000 FEET WITH NO
SIGNIFICANT WEATHER AND/OR OBSTRUCTIONS TO VISIBILITY.

* - THESE STATIONS ARE NOT NWS STATIONS...THUS NOT UNDER NWS
QUALITY CONTROL.  THEY ALSO DO NOT REPORT WEATHER SUCH
AS PRECIPITATION OR FOG.

IAZ001>003-012>014-020>022-031>034-043>046-021600-
   NORTHWEST IOWA

CITY           SKY/WX    TMP DP  RH WIND       PRES   REMARKS
CARROLL *      CLOUDY    36  34  93 NW8       30.22R WCI  29
CHEROKEE *     DRIZZLE   33  33 100 NE6       30.23R WCI  27
DENISON *      CLOUDY    34  32  93 NW6       30.21R WCI  29
LE MARS *      CLOUDY    34  32  93 NW7       30.24R WCI  28
ORANGE CITY *  CLOUDY    32  30  93 CALM      30.22R
SHELDON *      CLOUDY    32  32 100 N6        30.20R WCI  26
SIOUX CITY     CLOUDY    36  32  85 NW9       30.24R WCI  29
SPENCER        CLOUDY    32  29  88 NW10      30.22R WCI  24
STORM LAKE *   CLOUDY    32  32 100 NW6       30.20S FOG     WCI  26
$$

IAZ055>058-069>071-079>083-090>094-021600-
   SOUTHWEST IOWA

CITY           SKY/WX    TMP DP  RH WIND       PRES   REMARKS
ATLANTIC *     SUNNY     32  30  93 CALM      30.23R
AUDUBON *      PTSUNNY   34  30  86 W3        30.23R
CLARINDA *       N/A     28  28 100 MISG      30.28R
COUNCIL BLFS * SUNNY     32  30  93 CALM      30.24R
CRESTON *      SUNNY     32  30  93 W7        30.24R FOG     WCI  26
HARLAN  *      MOSUNNY   32  32 100 NW9       30.26S WCI  24
LAMONI         SUNNY     32  28  85 W5        30.23R WCI  27
RED OAK *      MOSUNNY   30  28  93 CALM      30.26R
SHENANDOAH *   SUNNY     28  27  93 CALM      30.27R
$$

IAZ047>049-059>061-072>074-084-021600-
   CENTRAL IOWA

CITY           SKY/WX    TMP DP  RH WIND       PRES   REMARKS
AMES           CLOUDY    36  33  89 N7        30.22R WCI  30
ANKENY *       CLOUDY    36  36 100 NW5       30.24R WCI  32
BOONE *        CLOUDY    34  32  93 N6        30.21R WCI  29
CHARITON *       N/A     34  30  86 W7        30.23R WCI  28
DES MOINES     CLOUDY    37  32  82 N7        30.23R WCI  32
GRINNELL*      CLOUDY    35  33  90 W5        30.22R WCI  31
KNOXVILLE *    CLOUDY    36  30  80 W7        30.22R WCI  30
MARSHALLTOWN   CLOUDY    35  31  85 NW9       30.21R WCI  28
NEWTON *       CLOUDY    36  32  87 W6        30.22R WCI  31
PELLA *        CLOUDY    36  32  86 W5        30.24R WCI  32
PERRY *        CLOUDY    36  34  94 NW6       30.23R WCI  31
$$

IAZ004>006-015-016-023>025-035-036-021600-
   NORTH CENTRAL IOWA

CITY           SKY/WX    TMP DP  RH WIND       PRES   REMARKS
ALGONA *       CLOUDY    32  28  86 N8        30.21R WCI  25
CLARION *      CLOUDY    32  30  93 NW8       30.22R WCI  25
ESTHERVILLE    CLOUDY    30  28  92 N9        30.21R WCI  22
FORT DODGE *   CLOUDY    34  27  75 N6        30.23R WCI  29
MASON CITY     CLOUDY    30  25  81 NW16      30.22R WCI  19
FOREST CITY *  CLOUDY    32  27  80 NW14      30.21R WCI  22
WEBSTER CITY * CLOUDY    34  34 100 N9        30.20R WCI  26
IOWA FALLS *   CLOUDY    34  30  87 NW7       30.22R WCI  28
$$

IAZ007>011-017>019-026>030-037>042-050>054-066-021600-
   NORTHEAST IOWA

CITY           SKY/WX    TMP DP  RH WIND       PRES   REMARKS
CEDAR RAPIDS   CLOUDY    35  34  96 NW12      30.19R WCI  27
CHARLES CITY * CLOUDY    32  27  80 NW9G16    30.19R WCI  24
CLINTON *      CLOUDY    37  35  92 W13       30.18R WCI  29
DECORAH *      CLOUDY    32  27  80 N8        30.16R WCI  25
DUBUQUE        PTSUNNY   34  32  92 NW9       30.16R WCI  27
MONTICELLO *   CLOUDY    36  30  80 NW13      30.18R WCI  27
OELWEIN *      CLOUDY    34  30  86 NW13      30.19R WCI  25
WATERLOO       CLOUDY    34  26  72 NW13      30.20R WCI  25
$$

IAZ064-065-067-068-078-021600-
   EAST CENTRAL IOWA

CITY           SKY/WX    TMP DP  RH WIND       PRES   REMARKS
DAVENPORT      CLOUDY    37  33  85 W10       30.19R WCI  30
IOWA CITY      CLOUDY    37  32  82 NW8       30.22R WCI  31
MUSCATINE *    CLOUDY    37  34  87 W10       30.22R WCI  30
QUAD CITIES    CLOUDY    39  32  76 W7        30.19R WCI  34
$$

IAZ062-063-075>077-085>089-095>099-021600-
   SOUTHEAST IOWA

CITY           SKY/WX    TMP DP  RH WIND       PRES   REMARKS
BURLINGTON     CLOUDY    37  33  85 W7        30.22R WCI  32
FAIRFIELD *    CLOUDY    37  32  81 W9        30.22R WCI  31
FORT MADISON * CLOUDY    37  34  87 W8        30.23R WCI  31
KEOKUK *       CLOUDY    37  32  81 W7        30.23R WCI  32
OSKALOOSA *    CLOUDY    35  32  89 W7        30.23R WCI  29
CENTERVILLE *    N/A     34  30  86 W7        30.24S WCI  28
OTTUMWA        CLOUDY    37  31  78 W7        30.23R WCI  32
WASHINGTON *   CLOUDY    36  34  93 W8        30.23R WCI  29
$$

ABBREVIATIONS USED IN REMARKS
   TC - TEMPERATURES IN CELSIUS
  WCI - WIND CHILL INDEX
   HX - HEAT INDEX
  VSB - VISIBILITY
$$





USA.gov is the U.S. government's official web portal to all federal, state and local government web resources and services.